• In Czech Republic
  • List of Countries
  • For 7 days
  • Water Temperature
  • Satellite Maps
  • Weather Map
  • Weather Widgets
  • user-avatar
    Login

    Hourly Weather Manama

    Today, 20 August, Monday

    Time Temperature Precipitation Wind Pressure Humidity
    00:00 +37°C° 0 mm 3 mps 748 mmHg 30%
    01:00 +37°C° 0 mm 4 mps 748 mmHg 29%
    02:00 +37°C° 0 mm 4 mps 748 mmHg 29%
    03:00 +37°C° 0 mm 5 mps 748 mmHg 24%
    04:00 +37°C° 0 mm 5 mps 748 mmHg 24%
    05:00 +38°C° 0 mm 6 mps 748 mmHg 25%
    06:00 +38°C° 0 mm 6 mps 749 mmHg 25%
    07:00 +40°C° 0 mm 6 mps 749 mmHg 22%
    08:00 +42°C° 0 mm 6 mps 749 mmHg 19%
    09:00 +45°C° 0 mm 7 mps 749 mmHg 15%
    10:00 +46°C° 0 mm 7 mps 749 mmHg 16%
    11:00 +47°C° 0 mm 6 mps 749 mmHg 16%
    12:00 +47°C° 0 mm 6 mps 749 mmHg 16%
    13:00 +47°C° 0 mm 7 mps 749 mmHg 17%
    14:00 +47°C° 0 mm 7 mps 749 mmHg 18%
    15:00 +46°C° 0 mm 7 mps 749 mmHg 19%
    16:00 +45°C° 0 mm 7 mps 749 mmHg 22%
    17:00 +44°C° 0 mm 6 mps 748 mmHg 24%
    18:00 +41°C° 0 mm 6 mps 748 mmHg 26%
    19:00 +40°C° 0 mm 4 mps 748 mmHg 27%
    20:00 +38°C° 0 mm 3 mps 749 mmHg 28%
    21:00 +37°C° 0 mm 2 mps 749 mmHg 29%
    22:00 +37°C° 0 mm 2 mps 748 mmHg 28%
    23:00 +37°C° 0 mm 3 mps 748 mmHg 26%

    Tomorrow, 21 August, Tuesday

    Time Temperature Precipitation Wind Pressure Humidity
    00:00 +37°C° 0 mm 3 mps 748 mmHg 25%
    01:00 +37°C° 0 mm 3 mps 748 mmHg 25%
    02:00 +37°C° 0 mm 4 mps 748 mmHg 26%
    03:00 +37°C° 0 mm 4 mps 748 mmHg 27%
    04:00 +37°C° 0 mm 4 mps 748 mmHg 27%
    05:00 +37°C° 0 mm 4 mps 748 mmHg 26%
    06:00 +36°C° 0 mm 4 mps 748 mmHg 26%
    07:00 +38°C° 0 mm 4 mps 749 mmHg 24%
    08:00 +41°C° 0 mm 5 mps 749 mmHg 23%
    09:00 +42°C° 0 mm 5 mps 749 mmHg 21%
    10:00 +43°C° 0 mm 5 mps 749 mmHg 23%
    11:00 +45°C° 0 mm 5 mps 749 mmHg 25%
    12:00 +45°C° 0 mm 4 mps 749 mmHg 27%
    13:00 +46°C° 0 mm 5 mps 748 mmHg 27%
    14:00 +45°C° 0 mm 5 mps 748 mmHg 28%
    15:00 +45°C° 0 mm 5 mps 748 mmHg 28%
    16:00 +43°C° 0 mm 5 mps 747 mmHg 32%
    17:00 +42°C° 0 mm 5 mps 747 mmHg 35%
    18:00 +41°C° 0 mm 4 mps 747 mmHg 39%
    19:00 +40°C° 0 mm 4 mps 748 mmHg 40%
    20:00 +38°C° 0 mm 3 mps 748 mmHg 42%
    21:00 +38°C° 0 mm 2 mps 748 mmHg 44%
    22:00 +37°C° 0 mm 2 mps 748 mmHg 43%
    23:00 +35°C° 0 mm 1 mps 748 mmHg 43%

    Day after tomorrow, 22 August, Wednesday

    Time Temperature Precipitation Wind Pressure Humidity
    00:00 +33°C° 0 mm 0 mps 748 mmHg 42%
    01:00 +35°C° 0 mm 1 mps 748 mmHg 39%
    02:00 +36°C° 0 mm 2 mps 747 mmHg 36%
    03:00 +37°C° 0 mm 3 mps 747 mmHg 33%
    04:00 +37°C° 0 mm 3 mps 747 mmHg 31%
    05:00 +37°C° 0 mm 3 mps 748 mmHg 30%
    06:00 +37°C° 0 mm 3 mps 748 mmHg 29%
    07:00 +38°C° 0 mm 3 mps 748 mmHg 27%
    08:00 +41°C° 0 mm 4 mps 748 mmHg 24%
    09:00 +43°C° 0 mm 4 mps 749 mmHg 22%
    10:00 +44°C° 0 mm 4 mps 749 mmHg 24%
    11:00 +44°C° 0 mm 4 mps 748 mmHg 25%
    12:00 +46°C° 0 mm 5 mps 748 mmHg 27%
    13:00 +46°C° 0 mm 5 mps 748 mmHg 28%
    14:00 +46°C° 0 mm 5 mps 747 mmHg 29%
    15:00 +45°C° 0 mm 5 mps 747 mmHg 30%
    16:00 +43°C° 0 mm 5 mps 747 mmHg 35%
    17:00 +42°C° 0 mm 4 mps 747 mmHg 39%
    18:00 +40°C° 0 mm 4 mps 747 mmHg 44%
    19:00 +39°C° 0 mm 3 mps 747 mmHg 45%
    20:00 +38°C° 0 mm 2 mps 748 mmHg 47%
    21:00 +37°C° 0 mm 2 mps 748 mmHg 49%
    22:00 +37°C° 0 mm 2 mps 748 mmHg 47%
    23:00 +37°C° 0 mm 2 mps 748 mmHg 44%

    23 August, Thursday

    Time Temperature Precipitation Wind Pressure Humidity
    00:00 +36°C° 0 mm 1 mps 747 mmHg 42%
    01:00 +37°C° 0 mm 2 mps 747 mmHg 39%
    02:00 +37°C° 0 mm 2 mps 747 mmHg 36%
    03:00 +37°C° 0 mm 3 mps 747 mmHg 33%
    04:00 +37°C° 0 mm 3 mps 747 mmHg 31%
    05:00 +37°C° 0 mm 4 mps 747 mmHg 29%
    06:00 +37°C° 0 mm 4 mps 748 mmHg 27%
    07:00 +40°C° 0 mm 5 mps 748 mmHg 27%
    08:00 +42°C° 0 mm 6 mps 748 mmHg 27%
    09:00 +45°C° 0 mm 6 mps 749 mmHg 26%
    10:00 +45°C° 0 mm 6 mps 748 mmHg 26%
    11:00 +46°C° 0 mm 6 mps 748 mmHg 25%
    12:00 +47°C° 0 mm 6 mps 748 mmHg 24%
    13:00 +46°C° 0 mm 6 mps 747 mmHg 26%
    14:00 +46°C° 0 mm 6 mps 747 mmHg 27%
    15:00 +45°C° 0 mm 6 mps 747 mmHg 29%
    16:00 +44°C° 0 mm 6 mps 747 mmHg 32%
    17:00 +42°C° 0 mm 5 mps 747 mmHg 36%
    18:00 +41°C° 0 mm 5 mps 747 mmHg 40%
    19:00 +40°C° 0 mm 4 mps 748 mmHg 41%
    20:00 +39°C° 0 mm 3 mps 748 mmHg 42%
    21:00 +38°C° 0 mm 3 mps 749 mmHg 43%
    22:00 +38°C° 0 mm 3 mps 748 mmHg 42%
    23:00 +38°C° 0 mm 3 mps 748 mmHg 41%

    24 August, Friday

    Time Temperature Precipitation Wind Pressure Humidity
    00:00 +38°C° 0 mm 3 mps 748 mmHg 40%
    01:00 +38°C° 0 mm 3 mps 748 mmHg 41%
    02:00 +37°C° 0 mm 3 mps 748 mmHg 42%
    03:00 +37°C° 0 mm 4 mps 747 mmHg 44%
    04:00 +37°C° 0 mm 4 mps 748 mmHg 46%
    05:00 +37°C° 0 mm 5 mps 748 mmHg 48%
    06:00 +39°C° 0 mm 5 mps 749 mmHg 50%
    07:00 +40°C° 0 mm 5 mps 749 mmHg 42%
    08:00 +42°C° 0 mm 5 mps 749 mmHg 35%
    09:00 +45°C° 0 mm 5 mps 749 mmHg 28%
    10:00 +46°C° 0 mm 6 mps 749 mmHg 26%
    11:00 +46°C° 0 mm 6 mps 749 mmHg 25%
    12:00 +47°C° 0 mm 6 mps 749 mmHg 23%
    13:00 +46°C° 0 mm 6 mps 749 mmHg 23%
    14:00 +46°C° 0 mm 7 mps 748 mmHg 23%
    15:00 +46°C° 0 mm 7 mps 748 mmHg 23%
    16:00 +45°C° 0 mm 6 mps 748 mmHg 27%
    17:00 +44°C° 0 mm 6 mps 748 mmHg 30%
    18:00 +42°C° 0 mm 5 mps 748 mmHg 33%
    19:00 +41°C° 0 mm 4 mps 748 mmHg 35%
    20:00 +40°C° 0 mm 4 mps 749 mmHg 38%
    21:00 +38°C° 0 mm 3 mps 749 mmHg 40%
    22:00 +38°C° 0 mm 3 mps 748 mmHg 39%
    23:00 +38°C° 0 mm 3 mps 748 mmHg 38%

    25 August, Saturday

    Time Temperature Precipitation Wind Pressure Humidity
    00:00 +38°C° 0 mm 4 mps 748 mmHg 37%
    01:00 +38°C° 0 mm 4 mps 748 mmHg 40%
    02:00 +38°C° 0 mm 4 mps 747 mmHg 43%
    03:00 +37°C° 0 mm 4 mps 747 mmHg 46%
    04:00 +37°C° 0 mm 4 mps 748 mmHg 47%
    05:00 +37°C° 0 mm 4 mps 748 mmHg 49%
    06:00 +37°C° 0 mm 4 mps 748 mmHg 51%
    07:00 +40°C° 0 mm 5 mps 748 mmHg 44%
    08:00 +42°C° 0 mm 5 mps 749 mmHg 36%
    09:00 +45°C° 0 mm 5 mps 749 mmHg 29%
    10:00 +46°C° 0 mm 5 mps 749 mmHg 25%
    11:00 +47°C° 0 mm 6 mps 748 mmHg 21%
    12:00 +48°C° 0 mm 6 mps 748 mmHg 17%
    13:00 +48°C° 0 mm 6 mps 748 mmHg 18%
    14:00 +47°C° 0 mm 7 mps 747 mmHg 19%
    15:00 +47°C° 0 mm 7 mps 747 mmHg 20%
    16:00 +45°C° 0 mm 7 mps 747 mmHg 24%
    17:00 +44°C° 0 mm 6 mps 747 mmHg 28%
    18:00 +41°C° 0 mm 6 mps 747 mmHg 31%
    19:00 +41°C° 0 mm 5 mps 748 mmHg 33%
    20:00 +40°C° 0 mm 4 mps 748 mmHg 35%
    21:00 +38°C° 0 mm 3 mps 748 mmHg 37%
    22:00 +38°C° 0 mm 2 mps 748 mmHg 36%
    23:00 +37°C° 0 mm 2 mps 747 mmHg 35%
    Show more